• In Lithuania
  • List of Countries
  • For 7 days
  • Water Temperature
  • Satellite Maps
  • Weather Map
  • Weather Widgets
  • user-avatar
    Login

    Hourly Weather Niedanow

    Today, 21 May, Monday

    Time Temperature Precipitation Wind Pressure Humidity
    00:00 +10°C° 0 mm 2 mps 752 mmHg 83%
    01:00 +10°C° 0 mm 2 mps 752 mmHg 84%
    02:00 +10°C° 0 mm 2 mps 752 mmHg 85%
    03:00 +10°C° 0 mm 1 mps 752 mmHg 86%
    04:00 +10°C° 0 mm 1 mps 752 mmHg 87%
    05:00 +12°C° 0 mm 2 mps 752 mmHg 82%
    06:00 +13°C° 0 mm 2 mps 752 mmHg 78%
    07:00 +16°C° 0 mm 3 mps 752 mmHg 72%
    08:00 +17°C° 0 mm 3 mps 752 mmHg 67%
    09:00 +18°C° 0 mm 4 mps 752 mmHg 61%
    10:00 +19°C° 0 mm 5 mps 751 mmHg 56%
    11:00 +20°C° 0 mm 5 mps 751 mmHg 55%
    12:00 +20°C° 0 mm 5 mps 751 mmHg 54%
    13:00 +21°C° 0 mm 5 mps 750 mmHg 53%
    14:00 +21°C° 0 mm 5 mps 750 mmHg 54%
    15:00 +21°C° 0 mm 5 mps 749 mmHg 55%
    16:00 +20°C° 0 mm 5 mps 749 mmHg 56%
    17:00 +19°C° 0 mm 4 mps 749 mmHg 61%
    18:00 +18°C° 0 mm 4 mps 748 mmHg 67%
    19:00 +17°C° 0 mm 3 mps 748 mmHg 73%
    20:00 +14°C° 0 mm 3 mps 748 mmHg 76%
    21:00 +13°C° 0 mm 3 mps 748 mmHg 79%
    22:00 +12°C° 0 mm 3 mps 748 mmHg 82%
    23:00 +12°C° 0 mm 2 mps 748 mmHg 83%

    Tomorrow, 22 May, Tuesday

    Time Temperature Precipitation Wind Pressure Humidity
    00:00 +10°C° 0 mm 2 mps 748 mmHg 85%
    01:00 +10°C° 0 mm 2 mps 748 mmHg 86%
    02:00 +9°C° 0 mm 2 mps 747 mmHg 87%
    03:00 +9°C° 0 mm 2 mps 747 mmHg 88%
    04:00 +10°C° 0 mm 1 mps 747 mmHg 89%
    05:00 +11°C° 0 mm 1 mps 747 mmHg 84%
    06:00 +13°C° 0 mm 2 mps 747 mmHg 80%
    07:00 +15°C° 0 mm 2 mps 747 mmHg 75%
    08:00 +17°C° 0 mm 2 mps 747 mmHg 71%
    09:00 +18°C° 0 mm 2 mps 747 mmHg 67%
    10:00 +20°C° 0 mm 2 mps 747 mmHg 63%
    11:00 +21°C° 0.1 mm 2 mps 746 mmHg 62%
    12:00 +23°C° 0.1 mm 2 mps 746 mmHg 60%
    13:00 +23°C° 0.1 mm 2 mps 746 mmHg 58%
    14:00 +23°C° 0.3 mm 2 mps 746 mmHg 59%
    15:00 +23°C° 0.3 mm 2 mps 746 mmHg 59%
    16:00 +23°C° 0.3 mm 2 mps 746 mmHg 60%
    17:00 +22°C° 0.2 mm 1 mps 746 mmHg 66%
    18:00 +21°C° 0.2 mm 1 mps 746 mmHg 72%
    19:00 +20°C° 0.2 mm 1 mps 746 mmHg 78%
    20:00 +19°C° 0.1 mm 1 mps 746 mmHg 80%
    21:00 +16°C° 0.1 mm 2 mps 747 mmHg 83%
    22:00 +15°C° 0.1 mm 2 mps 747 mmHg 86%
    23:00 +15°C° 0 mm 2 mps 747 mmHg 86%

    Day after tomorrow, 23 May, Wednesday

    Time Temperature Precipitation Wind Pressure Humidity
    00:00 +14°C° 0 mm 2 mps 747 mmHg 87%
    01:00 +14°C° 0 mm 1 mps 747 mmHg 87%
    02:00 +13°C° 0 mm 1 mps 747 mmHg 88%
    03:00 +13°C° 0 mm 1 mps 747 mmHg 89%
    04:00 +13°C° 0 mm 1 mps 748 mmHg 90%
    05:00 +14°C° 0 mm 2 mps 748 mmHg 86%
    06:00 +16°C° 0 mm 2 mps 748 mmHg 83%
    07:00 +17°C° 0 mm 2 mps 749 mmHg 80%
    08:00 +19°C° 0.2 mm 2 mps 749 mmHg 77%
    09:00 +20°C° 0.2 mm 3 mps 749 mmHg 73%
    10:00 +22°C° 0.2 mm 3 mps 749 mmHg 70%
    11:00 +22°C° 0.9 mm 4 mps 749 mmHg 70%
    12:00 +22°C° 0.9 mm 4 mps 749 mmHg 71%
    13:00 +22°C° 0.9 mm 4 mps 749 mmHg 71%
    14:00 +22°C° 0.9 mm 4 mps 749 mmHg 73%
    15:00 +22°C° 0.9 mm 4 mps 749 mmHg 76%
    16:00 +21°C° 0.9 mm 4 mps 749 mmHg 78%
    17:00 +20°C° 0.3 mm 3 mps 749 mmHg 81%
    18:00 +20°C° 0.3 mm 3 mps 749 mmHg 84%
    19:00 +19°C° 0.3 mm 3 mps 750 mmHg 87%
    20:00 +18°C° 0 mm 3 mps 750 mmHg 89%
    21:00 +17°C° 0 mm 2 mps 750 mmHg 90%
    22:00 +16°C° 0 mm 2 mps 750 mmHg 92%
    23:00 +16°C° 0 mm 2 mps 751 mmHg 92%

    24 May, Thursday

    Time Temperature Precipitation Wind Pressure Humidity
    00:00 +15°C° 0 mm 2 mps 751 mmHg 93%
    01:00 +15°C° 0 mm 2 mps 751 mmHg 94%
    02:00 +14°C° 0 mm 2 mps 751 mmHg 94%
    03:00 +14°C° 0 mm 2 mps 751 mmHg 94%
    04:00 +14°C° 0 mm 2 mps 751 mmHg 94%
    05:00 +15°C° 0 mm 2 mps 751 mmHg 91%
    06:00 +16°C° 0 mm 3 mps 751 mmHg 89%
    07:00 +17°C° 0 mm 3 mps 752 mmHg 86%
    08:00 +18°C° 0 mm 3 mps 752 mmHg 81%
    09:00 +20°C° 0 mm 4 mps 752 mmHg 76%
    10:00 +21°C° 0 mm 4 mps 752 mmHg 71%
    11:00 +22°C° 0.1 mm 5 mps 752 mmHg 69%
    12:00 +23°C° 0.1 mm 5 mps 751 mmHg 67%
    13:00 +23°C° 0.1 mm 6 mps 751 mmHg 65%
    14:00 +23°C° 0.2 mm 6 mps 751 mmHg 65%
    15:00 +23°C° 0.2 mm 6 mps 751 mmHg 64%
    16:00 +23°C° 0.2 mm 6 mps 750 mmHg 64%
    17:00 +22°C° 0 mm 5 mps 750 mmHg 68%
    18:00 +21°C° 0 mm 4 mps 750 mmHg 73%
    19:00 +20°C° 0 mm 4 mps 750 mmHg 78%
    20:00 +19°C° 0 mm 4 mps 750 mmHg 80%
    21:00 +17°C° 0 mm 3 mps 751 mmHg 83%
    22:00 +16°C° 0 mm 3 mps 751 mmHg 86%
    23:00 +16°C° 0 mm 3 mps 751 mmHg 88%

    25 May, Friday

    Time Temperature Precipitation Wind Pressure Humidity
    00:00 +14°C° 0 mm 3 mps 751 mmHg 90%
    01:00 +14°C° 0 mm 3 mps 751 mmHg 92%
    02:00 +13°C° 0 mm 3 mps 751 mmHg 93%
    03:00 +14°C° 0 mm 2 mps 751 mmHg 94%
    04:00 +13°C° 0 mm 2 mps 751 mmHg 95%
    05:00 +14°C° 0 mm 3 mps 751 mmHg 91%
    06:00 +16°C° 0 mm 3 mps 751 mmHg 87%
    07:00 +18°C° 0 mm 3 mps 751 mmHg 83%
    08:00 +19°C° 0 mm 4 mps 751 mmHg 79%
    09:00 +20°C° 0 mm 4 mps 751 mmHg 75%
    10:00 +22°C° 0 mm 4 mps 751 mmHg 71%
    11:00 +23°C° 0.1 mm 5 mps 751 mmHg 68%
    12:00 +23°C° 0.1 mm 5 mps 751 mmHg 66%
    13:00 +25°C° 0.1 mm 5 mps 750 mmHg 63%
    14:00 +25°C° 0.2 mm 5 mps 750 mmHg 65%
    15:00 +25°C° 0.2 mm 5 mps 750 mmHg 67%
    16:00 +25°C° 0.2 mm 5 mps 750 mmHg 69%
    17:00 +23°C° 0.1 mm 4 mps 750 mmHg 74%
    18:00 +22°C° 0.1 mm 4 mps 750 mmHg 78%
    19:00 +21°C° 0.1 mm 3 mps 750 mmHg 82%
    20:00 +20°C° 0 mm 3 mps 751 mmHg 83%
    21:00 +19°C° 0 mm 3 mps 751 mmHg 85%
    22:00 +18°C° 0 mm 3 mps 751 mmHg 86%
    23:00 +18°C° 0 mm 3 mps 751 mmHg 87%

    26 May, Saturday

    Time Temperature Precipitation Wind Pressure Humidity
    00:00 +18°C° 0 mm 3 mps 751 mmHg 87%
    01:00 +17°C° 0 mm 3 mps 751 mmHg 88%
    02:00 +17°C° 0 mm 3 mps 751 mmHg 88%
    03:00 +17°C° 0 mm 3 mps 751 mmHg 89%
    04:00 +16°C° 0 mm 3 mps 751 mmHg 89%
    05:00 +18°C° 0 mm 3 mps 752 mmHg 86%
    06:00 +19°C° 0 mm 3 mps 752 mmHg 82%
    07:00 +20°C° 0 mm 4 mps 752 mmHg 79%
    08:00 +22°C° 0.4 mm 4 mps 752 mmHg 75%
    09:00 +23°C° 0.4 mm 4 mps 752 mmHg 72%
    10:00 +25°C° 0.4 mm 4 mps 752 mmHg 68%
    11:00 +26°C° 0.6 mm 4 mps 752 mmHg 66%
    12:00 +26°C° 0.6 mm 4 mps 752 mmHg 64%
    13:00 +27°C° 0.6 mm 4 mps 752 mmHg 62%
    14:00 +27°C° 0.2 mm 4 mps 752 mmHg 62%
    15:00 +27°C° 0.2 mm 4 mps 751 mmHg 63%
    16:00 +27°C° 0.2 mm 4 mps 751 mmHg 63%
    17:00 +26°C° 0.2 mm 3 mps 751 mmHg 68%
    18:00 +24°C° 0.2 mm 3 mps 751 mmHg 74%
    19:00 +22°C° 0.2 mm 3 mps 751 mmHg 80%
    20:00 +21°C° 0.5 mm 3 mps 751 mmHg 82%
    21:00 +20°C° 0.5 mm 3 mps 751 mmHg 84%
    22:00 +19°C° 0.5 mm 3 mps 751 mmHg 86%
    23:00 +19°C° 0.1 mm 3 mps 751 mmHg 88%
    Show more